RH
49 50 55 63 65 59 56 42 38 42 42 42 42 42 44 46 46 41 40 43 46 47 47 38 25 23 20 24 22 14 10 12 13 13 13 12 12 13 13 13 13 13 13
69 70 74 71 77 79 76 76 66 63 64 62 53 48 49 47 48 48 45 45 45 48 47 45 32 21 18 22 19 14 11 13 13 13 14 14 14 13 12 12 12 12 12
71 73 77 79 84 88 84 82 83 76 74 74 79 70 57 48 46 47 48 48 49 48 46 47 35 24 19 22 19 14 12 13 14 15 15 15 14 14 13 12 11 11 11
80 79 76 74 81 90 90 84 79 83 86 87 89 84 76 60 52 49 50 51 51 50 46 44 38 27 22 21 20 15 14 14 15 16 17 16 16 15 14 12 11 10 10
84 82 79 76 80 85 87 86 85 83 84 85 90 94 86 82 65 56 52 53 54 54 51 47 42 33 24 24 24 21 15 16 17 18 19 18 17 17 16 14 12 11 11
91 92 87 82 81 86 85 86 88 89 90 89 94 95 94 89 84 70 60 55 55 56 55 52 47 38 30 29 28 26 28 18 19 19 20 20 18 18 18 15 14 13 16
80 80 79 82 92 93 86 84 82 86 80 83 82 93 90 89 89 90 68 60 56 57 57 56 52 45 35 35 31 26 31 38 20 20 22 22 21 19 18 17 16 15 18
83 79 76 78 81 85 88 86 87 86 77 77 87 85 95 83 88 82 75 67 62 58 58 58 56 52 43 39 33 29 23 25 31 27 24 25 24 20 20 18 18 19 25
67 76 73 77 83 81 77 79 82 89 81 76 75 83 85 83 79 68 62 63 62 61 59 60 60 56 51 45 43 39 31 22 28 74 66 43 30 25 20 18 21 23 49
43 47 56 67 65 71 82 85 85 89 93 91 86 86 87 92 80 70 67 64 61 57 57 58 60 61 56 53 52 49 39 28 26 60 94 75 50 48 29 36 57 50 76
37 41 55 68 73 70 67 86 85 91 93 97 86 94 98 99 97 99 88 75 74 70 64 62 60 62 60 60 70 58 48 43 38 34 47 93 95 95 89 94 97 97 62
29 36 46 58 66 88 85 86 82 91 93 95 100 99 99 100 98 98 90 89 80 83 72 68 64 65 63 68 89 88 77 48 45 44 44 69 90 95 93 100 99 87 34
31 37 59 75 85 79 89 91 87 91 82 80 86 90 91 94 98 99 100 96 98 90 77 80 73 66 70 80 86 87 80 62 57 62 69 79 62 59 57 68 83 77 75
49 50 55 68 83 78 77 83 88 87 82 84 91 94 95 98 100 100 100 100 99 98 96 95 88 74 67 65 91 94 84 87 84 71 66 86 98 96 92 94 94 96 98
63 84 85 84 79 74 76 73 68 70 87 92 80 87 87 85 94 99 100 100 100 100 99 98 94 90 85 82 85 86 95 88 88 96 100 100 100 100 100 100 100 98 99
63 79 89 85 84 66 48 40 42 46 55 62 75 84 87 85 78 87 97 99 99 100 100 98 99 98 94 91 97 96 98 99 100 100 100 100 100 100 100 99 100 99 89
79 76 81 80 70 59 50 49 51 54 55 58 62 62 76 91 100 100 100 100 100 100 99 99 100 100 100 100 100 100 100 100 100 100 100 100 99 99 99 99 96 82 95
82 85 82 77 70 62 60 61 63 63 69 75 74 79 95 100 99 98 98 98 100 100 100 99 100 100 100 100 100 100 100 99 100 100 98 99 99 98 94 84 97 85 78
75 79 76 73 71 69 69 70 68 72 73 79 90 100 98 99 98 97 99 99 100 98 100 99 100 100 100 100 100 100 99 99 99 99 98 95 58 79 90 72 62 71 59
91 87 85 82 78 75 76 78 82 83 85 90 91 91 91 96 100 100 100 99 97 98 98 99 99 100 100 99 100 99 100 98 98 87 59 54 47 40 40 30 24 22 21
96 91 85 80 78 78 77 76 77 76 79 74 78 81 90 96 96 93 92 97 100 99 100 100 100 100 100 100 99 99 97 80 60 50 40 46 32 23 19 21 26 32 37
80 80 78 77 78 73 74 77 85 88 93 94 93 90 88 93 93 92 93 99 98 99 99 99 100 100 96 96 66 58 56 48 52 46 35 25 26 20 33 42 42 42 47
83 86 84 83 81 82 84 88 94 95 96 94 95 97 97 96 97 96 95 96 99 100 96 94 82 56 50 53 56 52 46 45 46 40 41 16 32 36 45 49 50 50 51
85 81 78 77 74 77 86 90 100 99 95 93 93 91 93 94 92 92 93 86 57 38 29 28 30 37 44 48 52 52 52 49 39 23 33 42 41 44 46 50 49 48 51
76 75 75 70 67 53 42 33 34 24 34 35 36 32 26 19 17 13 12 14 17 23 36 40 45 51 56 58 72 66 50 42 35 45 55 57 52 50 45 44 44 48 54
49 25 17 16 16 16 16 15 14 14 15 14 15 17 19 19 19 19 19 24 31 40 49 52 58 53 41 33 41 45 43 58 71 64 61 66 67 71 57 52 55 58 58
Wind_Speed
12 12 12 11 9 12 12 15 15 16 15 14 14 15 14 15 16 16 15 15 14 13 15 16 14 13 11 8 8 7 6 5 5 5 4 4 3 3 3 3 3 3 3
12 12 12 13 13 14 15 15 13 15 17 16 17 16 17 17 18 19 19 18 17 17 16 17 18 15 12 10 10 9 8 7 7 6 5 5 4 4 3 3 3 3 3
14 15 16 16 17 17 17 19 18 18 18 19 20 19 20 20 20 21 22 22 20 20 18 18 19 17 15 13 12 11 11 9 9 8 7 6 6 5 5 5 4 4 4
16 18 19 20 20 21 22 22 21 22 21 25 23 22 22 23 23 23 24 25 24 22 21 20 20 20 18 15 14 14 13 12 11 10 9 8 7 6 5 5 5 5 5
19 20 21 23 25 25 26 27 26 26 27 28 30 27 26 26 26 26 27 28 28 27 24 22 22 22 21 19 17 16 16 15 14 12 11 9 8 7 6 6 6 5 5
24 25 26 25 25 28 30 31 32 30 30 30 32 31 31 30 30 31 31 30 30 30 29 26 24 25 24 22 21 19 19 17 16 15 13 11 10 9 8 7 6 6 6
29 28 29 30 30 32 33 34 34 35 33 33 34 33 34 33 36 37 35 34 34 34 33 31 28 26 26 25 25 23 22 20 18 17 15 14 13 12 10 9 9 8 8
28 31 32 32 31 34 36 35 37 39 36 35 38 39 32 35 41 40 40 39 38 37 36 35 33 30 28 27 28 27 25 23 20 20 18 17 16 14 13 12 11 10 10
28 28 28 28 32 36 37 36 37 39 38 37 37 35 16 23 29 32 31 34 37 39 39 38 36 34 31 29 28 28 28 26 22 18 18 19 18 18 15 14 14 13 11
32 30 28 24 24 25 28 32 36 38 40 41 38 40 41 43 26 23 23 25 31 38 39 39 39 36 34 31 29 28 28 27 26 21 17 18 19 17 16 15 13 13 12
33 30 26 22 22 24 25 25 25 26 34 34 38 38 39 44 49 46 38 30 32 28 32 38 40 38 36 34 28 28 28 28 25 25 23 15 14 13 12 12 13 13 17
24 24 24 25 21 22 23 20 23 21 24 27 30 33 38 35 37 43 42 42 41 40 31 35 40 40 37 40 33 29 27 30 27 26 26 22 16 14 14 14 13 17 19
19 22 22 21 18 19 19 20 24 22 25 28 30 31 31 30 34 40 41 40 41 37 40 36 36 41 42 41 36 26 26 30 27 25 24 21 25 29 33 33 26 20 21
19 16 20 23 18 20 22 23 26 26 23 25 27 27 26 25 27 30 32 37 38 36 36 39 36 34 39 42 41 34 37 42 37 34 32 36 32 32 37 32 26 24 28
17 15 14 16 19 22 24 26 25 22 20 20 23 25 25 26 26 25 26 31 32 22 29 33 33 33 32 33 34 38 40 38 34 34 37 32 33 30 30 31 29 29 31
15 15 16 17 18 17 16 16 17 14 12 12 14 16 19 20 20 23 24 23 20 25 28 31 27 25 26 30 35 35 36 34 32 28 28 26 30 32 28 23 25 25 23
12 13 15 16 16 15 14 14 13 12 12 12 12 13 15 16 18 20 21 23 25 23 25 27 28 25 25 26 30 30 32 31 28 27 26 27 25 23 24 25 24 23 21
13 14 15 16 16 15 14 14 14 15 17 17 17 17 17 18 19 19 18 19 20 20 18 21 20 17 21 22 22 23 25 29 24 25 22 23 22 22 21 18 19 21 21
11 10 10 10 10 11 12 13 15 16 16 15 15 16 17 16 16 17 17 16 14 11 12 12 15 15 15 19 22 20 21 22 20 21 20 17 14 13 18 21 22 21 20
3 4 5 5 7 9 9 9 10 10 9 10 11 12 12 12 11 11 10 8 6 5 6 8 11 10 10 13 15 16 16 17 17 16 14 15 17 18 22 25 25 23 21
2 1 2 2 2 2 3 4 5 6 6 9 10 10 8 7 5 4 5 4 4 5 6 6 8 7 8 9 10 13 13 12 14 15 15 18 20 20 19 20 19 17 16
5 3 3 2 2 2 4 5 3 2 2 3 3 3 4 3 3 5 5 6 7 7 8 8 9 10 10 10 9 9 11 13 13 12 16 16 17 16 14 17 16 15 16
4 4 3 4 4 5 5 6 7 5 5 5 4 4 4 4 6 6 7 7 8 9 11 10 10 10 10 10 12 13 14 16 17 16 19 17 11 13 13 15 15 14 14
6 6 6 7 7 6 6 7 6 6 6 5 5 5 6 6 7 8 8 9 9 9 10 11 11 11 12 13 14 15 16 16 17 13 13 17 11 13 12 14 16 16 16
8 8 8 7 6 7 8 8 8 8 7 6 6 6 7 7 9 10 9 9 10 11 11 12 12 11 11 12 12 14 12 13 13 11 12 16 12 16 16 15 14 14 13
7 7 6 6 7 7 6 7 8 8 9 9 9 9 10 9 10 12 11 11 11 11 12 13 14 14 13 12 12 14 12 12 12 12 7 12 20 19 11 10 13 15 14
Wind_Direction
235 242 242 249 267 263 266 262 262 260 259 257 253 258 258 265 271 271 273 277 275 276 282 277 276 275 269 250 244 231 223 214 211 213 214 214 212 219 223 226 230 227 235
254 259 262 262 265 275 278 275 266 270 267 263 264 266 265 260 265 270 272 271 276 279 279 274 275 274 262 246 240 235 232 228 224 226 226 230 230 235 240 241 237 237 246
257 262 265 268 272 276 281 275 268 272 275 269 268 268 268 266 266 268 270 271 271 274 276 275 269 270 264 245 238 233 238 235 235 235 237 240 242 248 253 257 259 260 261
262 263 267 270 273 273 275 275 272 271 272 283 278 273 270 269 269 268 268 269 270 271 274 273 267 265 261 248 237 236 238 238 239 240 245 244 249 252 259 269 274 275 274
264 263 266 269 268 268 271 273 272 268 268 270 276 277 279 275 274 271 268 267 269 270 269 269 266 261 258 251 242 239 242 238 238 240 244 246 250 253 259 263 264 268 270
261 265 268 270 269 267 269 270 269 267 265 271 271 271 273 275 274 271 268 267 266 267 267 265 264 261 256 246 244 242 245 244 241 243 245 246 247 248 250 251 255 266 270
264 264 267 266 266 269 271 271 270 270 267 265 267 265 264 267 269 271 266 265 265 265 265 265 262 261 256 250 245 242 240 245 246 249 251 251 250 249 250 252 254 260 265
263 266 265 269 268 272 269 271 269 270 267 269 263 267 256 267 267 269 266 263 264 263 263 262 263 260 256 252 247 245 243 242 247 252 251 250 252 252 255 258 260 264 269
264 263 267 270 268 264 267 271 272 272 271 270 269 262 258 256 267 272 269 265 262 260 261 260 261 263 258 256 251 249 246 245 242 238 243 249 253 257 260 262 263 266 269
264 264 266 269 272 275 273 272 272 272 270 273 271 269 267 263 263 274 268 268 260 256 257 259 260 261 260 257 258 257 253 251 246 235 231 244 251 255 259 258 262 265 268
265 265 265 262 270 275 276 274 281 283 272 276 277 276 273 264 259 257 268 267 267 269 265 260 260 260 257 255 253 260 258 254 249 243 241 231 238 248 260 262 267 264 263
267 268 267 266 261 270 270 269 281 286 289 280 285 280 275 267 274 257 263 270 287 273 273 262 256 255 252 254 250 242 249 255 254 254 247 236 232 237 246 255 268 275 276
273 264 265 264 258 270 274 274 273 284 278 282 285 283 282 284 285 276 275 274 272 276 273 270 262 255 250 248 250 244 241 249 252 244 241 237 246 262 260 262 264 265 275
276 272 260 258 258 261 266 276 278 281 277 276 278 282 286 289 288 282 279 268 267 269 268 256 264 257 253 250 255 241 235 238 243 250 253 265 264 262 267 271 269 271 272
267 269 259 264 265 267 268 271 276 282 279 280 278 284 285 285 286 290 286 281 271 270 280 274 264 270 267 257 251 246 245 250 251 256 260 257 261 265 266 266 267 271 272
266 255 265 268 274 275 274 270 270 271 273 275 274 278 284 283 287 288 289 280 279 279 269 283 279 269 266 254 249 249 252 254 257 261 265 260 260 262 262 265 265 267 272
264 260 259 268 275 278 275 271 267 262 263 271 276 279 272 275 277 279 280 279 275 275 280 277 270 261 253 249 246 251 253 258 260 267 261 260 259 261 261 262 266 271 275
266 266 270 275 277 277 277 274 271 274 277 278 280 277 277 275 271 281 289 291 289 287 275 270 276 261 251 248 245 253 257 261 260 263 260 262 263 263 266 266 263 260 269
266 265 270 273 278 282 284 283 283 283 285 290 296 298 295 294 297 299 294 289 285 283 277 278 280 271 255 249 247 249 251 259 268 267 265 267 263 258 252 257 265 268 268
255 270 279 295 307 306 307 309 309 315 317 321 319 313 309 303 298 299 296 291 281 291 271 266 269 258 243 241 246 251 258 263 264 267 265 260 263 264 265 270 271 271 270
143 71 18 359 356 2 349 324 307 311 308 326 324 318 314 312 331 303 290 278 265 264 270 275 270 281 276 268 261 258 261 261 262 269 270 271 276 273 273 273 271 268 268
110 127 146 98 59 26 327 329 344 5 43 50 15 0 341 318 289 273 274 272 274 278 282 280 279 278 279 277 272 263 266 268 282 281 279 274 277 277 272 266 267 268 267
113 103 89 65 47 48 53 57 62 43 32 24 14 5 348 330 312 307 304 293 282 280 278 279 283 280 277 271 268 270 273 279 285 284 286 290 281 274 265 262 264 261 259
100 99 90 73 59 62 55 45 46 30 17 359 343 328 315 310 303 297 293 288 285 282 282 286 282 282 279 276 273 275 276 276 280 287 288 289 295 286 266 273 267 258 259
98 91 78 67 51 38 30 23 12 3 347 338 330 318 313 310 305 297 295 289 285 284 284 285 288 285 285 282 282 280 281 288 295 298 291 288 293 290 286 274 258 242 223
97 88 76 54 35 20 5 350 339 329 325 321 318 316 315 309 306 305 305 302 295 289 284 284 286 285 283 277 272 270 280 284 290 307 292 286 298 308 309 269 236 201 264